Hundvaag 1 weather for Mar 1993
Month no. 69
Obs.
Da.
Temp. Dew Point Precip. Wind
Speed
Wind gusts Cloud cover Press. Humidity Wind dir. Sunny OPT
01.03.1993 -2,9   0,0             1  
02.03.1993 -5,6   0,0             1  
03.03.1993 -5,7   0,0             1  
04.03.1993 -5,8   0,0             1  
05.03.1993 4,2   6,1             1  
06.03.1993 3,9   3,4                
07.03.1993 2,4   1,3             1  
08.03.1993 3,1   0,0                
09.03.1993 2,3   0,0                
10.03.1993 0,0   0,0             1  
11.03.1993 -2,2   0,0             1  
12.03.1993 3,7   3,1                
13.03.1993 7,8   2,0                
14.03.1993 7,5   1,0             1  
15.03.1993 6,1   0,9                
16.03.1993 3,4   7,8             1  
17.03.1993 4,6   7,5                
18.03.1993 4,6   3,9                
19.03.1993 2,9   4,9                
20.03.1993 5,7   9,3                
21.03.1993 4,9   9,0             1  
22.03.1993 1,3   5,0             1  
23.03.1993 0,9   6,9                
24.03.1993 1,4   3,4             1  
25.03.1993 2,2   2,8             1  
26.03.1993 -2,2   0,0             1  
27.03.1993 3,2   0,0             1  
28.03.1993 1,1   0,0             1  
29.03.1993 -1,7   0,0             1  
30.03.1993 -1,2   0,0             1  
31.03.1993 1,5   0,0                
Avrg/Sum 1,7   78,3             19